Regional Weather Roundup
Issued by NWS

Home | Current Version | Previous Version | Text Only | Print | Product List | Glossary On
Versions: 1 2 3 4 5 6 7 8 9 10 11 12 13 14 15 16 17 18 19 20 21 22 23 24 25 26 27 28 29 30 31 32 33 34 35 36 37 38 39 40 41 42 43 44 45 46 47 48 49 50
000
ASHW40 PHFO 181932
RWRHI

WEATHER ROUNDUP FOR HAWAII
NATIONAL WEATHER SERVICE HONOLULU HI
900 AM HST WED OCT 18 2017

THIS IS AN AUTOMATED REPORT THAT HAS NOT BEEN QUALITY CONTROLLED.

NOTE..."FAIR" INDICATES FEW OR NO CLOUDS BELOW 12,000 FEET WITH NO
SIGNIFICANT WEATHER AND/OR OBSTRUCTIONS TO VISIBILITY.

* - THESE SITES REPORT LIMITED FIELDS
# - BUOY DATA PROVIDED BY PACIFIC ISLANDS OCEAN OBSERVING SYSTEM.

HIZ001>004-182000-
KAUAI-NIIHAU-

CITY           SKY/WX    TMP DP  RH WIND       PRES   REMARKS
LIHUE APT      MOSUNNY   81  69  67 NE24G30   30.14R
PORT ALLEN*      N/A     77 N/A N/A NE18G26     N/A
POIPU*           N/A     79 N/A N/A NE12G24     N/A
PRINCEVILLE*     N/A     75 N/A N/A SE8G14      N/A
KOKOLE POINT*  NOT AVBL
MOLOAA DAIRY*    N/A     79  68  69 E5G16       N/A
WAIMEA HTS*    NOT AVBL
PUU OPAE*      NOT AVBL
PUU LUA*       NOT AVBL
MAKAHA RIDGE*    N/A     73  63  68 NE1G9       N/A
$$

HIZ005>011-182000-
OAHU-

CITY           SKY/WX    TMP DP  RH WIND       PRES   REMARKS
HONOLULU       PTSUNNY   80  65  59 NE18G28   30.10R
KALAELOA       PTSUNNY   81  64  56 E12G20    30.11R
KANEOHE MCB    MOSUNNY   81  69  67 E14G23    30.09R
WHEELER FIELD  PTSUNNY   73  66  78 E12G17    30.11S
BELLOWS*         N/A    N/A N/A N/A NE22G28     N/A
KAHUKU*          N/A    N/A N/A N/A NE12G22     N/A
WHEELER*       NOT AVBL
WAIANAE HARBOR NOT AVBL
DILLINGHAM*      N/A     84  75  74 SW7G17      N/A  HX  92
KAHUKU TRN*      N/A     81  70  69 W15G29      N/A
KAWAILOA*        N/A     72  66  83 E13G26      N/A
KII*             N/A     79  68  69 E22G29      N/A
MAKUA RANGE*     N/A     79  64  61 SW5G21      N/A
OAHU FOREST NW NOT AVBL
SCHOFIELD BRK*   N/A     72  64  78 MISG        N/A
SCHOFIELD S*   NOT AVBL
WAIANAE VLY*   NOT AVBL
KUAOKALA*      NOT AVBL
HONOULIUULI*   NOT AVBL
MOKUOLOE IS*   NOT AVBL
PALEHUA*       NOT AVBL
WAIAWA PHB*    NOT AVBL
$$

HIZ012>013-182000-
MOLOKAI-

CITY           SKY/WX    TMP DP  RH WIND       PRES   REMARKS
MOLOKAI AIRPT  MOSUNNY   79  66  64 NE22G30   30.10R
KALAUPAPA      NOT AVBL
MAKAPULAPAI*     N/A     81  66  61 E23G32      N/A
MOLOKAI 1*     NOT AVBL
PUU ALII*        N/A     59  58  96 N5G16       N/A
$$

HIZ016-182000-
KAHOOLAWE-

CITY           SKY/WX    TMP DP  RH WIND       PRES   REMARKS
KAHOOLAWE*     NOT AVBL
HAKIOAWA*        N/A     80  64  58 MISG      30.47R
HONOKANAIA*      N/A     80  65  61 E17G29    29.99R
KANELOA*         N/A     77  64  65 E22G37    30.09R
KEALIALALO*    NOT AVBL
LUA MAKIKA*    NOT AVBL
$$

HIZ014>015-182000-
LANAI-

CITY           SKY/WX    TMP DP  RH WIND       PRES   REMARKS
LANAI CITY     PTSUNNY   73  62  68 E18G30    30.12R
LANAI 1*       NOT AVBL
$$

HIZ017>028-182000-
MAUI-

CITY           SKY/WX    TMP DP  RH WIND       PRES   REMARKS
KAHULUI        MOSUNNY   83  66  56 E16G28    30.10R
KAPALUA-W MAUI MOSUNNY   79  63  57 NE17G31   30.08
HANA AIRPORT   PTSUNNY   79  72  78 CALM      29.97
HANA*            N/A     79 N/A N/A E9G15       N/A
HALEAKALA SUMM   N/A     50  19  29 NE20G40     N/A
MAALAEA BAY*     N/A     81 N/A N/A NE24G39     N/A
HALEAKALA*     NOT AVBL
KAUPO GAP*     NOT AVBL
KULA 1*          N/A    N/A N/A N/A VRB3        N/A
$$

HIZ023>026-182000-
BIG ISLAND OF HAWAII COAST AND LOWER SLOPES-

CITY           SKY/WX    TMP DP  RH WIND       PRES   REMARKS
KAILUA KONA    MOSUNNY   82  63  52 S8        30.02R
HILO           MOSUNNY   78  66  66 N10       30.11R
HONOKAA*         N/A     75 N/A N/A VRB1        N/A
KAWAIHAE MWT*    N/A     84 N/A N/A S2G15       N/A
KAWAIHAE*        N/A     82 N/A N/A W5        30.01R
SOUTH POINT*     N/A     77 N/A N/A N30G44      N/A
UPOLU AIRPORT* NOT AVBL
KAMUELA*       NOT AVBL
HAKALAU*         N/A     56  46  70 N5G10       N/A
KALOKO-HONOKO*   N/A     84  66  54 S5        30.03
PALI 2*          N/A     72  54  53 S29G43      N/A
KEALAKOMO*       N/A     81  63  54 N26G35      N/A
KAUPULEHU*     NOT AVBL
KAPAPALA*        N/A     76  56  50 SW9G15      N/A
LOWER KAHUKU*    N/A    N/A N/A N/A NE2G9       N/A
PUHE CS*         N/A     84  52  32 E5G24       N/A
PUHO CS*         N/A     85  59  41 E2          N/A
PTA KEAMUKU*     N/A     72  45  37 E18G43      N/A
WAIKOLOA*      NOT AVBL
$$

HIZ027>028-182000-
BIG ISLAND OF HAWAII INTERIOR AND SUMMMITS-

CITY           SKY/WX    TMP DP  RH WIND       PRES   REMARKS
BRADSHAW FIELD SUNNY     61  39  44 S17       30.34R
MK VISITOR CEN   N/A     66  -2   6 E12         N/A
MAUNA KEA*       N/A     46  -8  10 NE13        N/A
MAUNA LOA*       N/A     55 -33   2 MISG        N/A
MAUNA LOA 1*   NOT AVBL
PTA KIPUKA*      N/A     75  57  53 E3          N/A
PTA RANGE 17*    N/A     61  43  51 NW22G36     N/A
PTA WEST*        N/A     79  52  38 SE18G32     N/A
NENE CABIN*      N/A     63  32  31 SE6G12      N/A
AHUMOA*        NOT AVBL
PTA PORTABLE*  NOT AVBL
PUU MALI*        N/A     59  37  44 E21G36      N/A
$$

HIC003-182000-
NORTHWEST ISLANDS-

CITY           SKY/WX    TMP DP  RH WIND       PRES   REMARKS
MIDWAY ISLAND  CLOUDY    79  72  78 E24       30.25R
MIDWAY NOS*      N/A     79 N/A N/A MISG      30.24R
FRENCH FRIGATE NOT AVBL
$$

PHZ110>124-180-182000-
BUOY REPORTS

STATION/POSITION TIME  TEMP    WIND        PRES    WAVE   SWELL
                       AIR SEA DIR/SP/G            HT/PER HT/DIR
                 (UTC) (F)     (DEG/KT/KT) (MB)    (FT/S) (FT/D)
BUOY 51001       1910   78 81   70/ 19/ 25 1022.9
BUOY 51101       1850   78 80   60/ 21/ 25 1022.5R  10/ 9   7/ 70
BUOY 51100       NOT AVBL
BUOY 51002       1910   80 80   70/ 23/ 29 1016.4
BUOY 51003       1850   80 81   60/ 17/ 21 1017.1R  10/ 9   7/ 80
BUOY 51004       1910   79 80   60/ 19/ 23 1016.7
WAIMEA BAY#      1902      78                N/A     7/ 9   2/360
MOKAPU POINT#    1904      80                N/A     9/ 9   2/ 40
LANAI#           NOT AVBL
BARBERS PT 2#    NOT AVBL
PAUWELA#         NOT AVBL
HILO#            1857      80                N/A     8/ 8   2/ 20
KANEOHE BAY#     NOT AVBL
KANEOHE BAY 2#   NOT AVBL
HANALEI#         1852      81                N/A    10/ 9   2/ 50
KAHULUI HARBOR   1900   78 78   50/ 14/ 20 1019.4
HONOLULU HARBOR  1900   78 80   50/  9/ 15 1019.9
PEARL HARBOR#    1900      80                N/A     3/14   2/150
KILO NALU        NOT AVBL
HILO HARBOR      1900   77 74  360/ 10/ 12 1019.4
MOKUOLOE         1836   78 78   90/ 13/ 17 1019.7R
NAWILIWILI       1900   78      50/ 14/ 22 1020.3
WHOTS BUOY       NOT AVBL
BUOY 51028       NOT AVBL
$$

......................KEY........................................
  SKY/WX - SKY CONDITIONS/PRESENT WEATHER
  TMP    - TEMPERATURE IN FAHRENHEIT
  DWPT   - DEWPOINT IN FAHRENHEIT
  RH     - RELATIVE HUMIDITY IN PERCENT
  WIND   - DIRECTION AND SPEED /MPH FOR ISLANDS...KTS FOR BUOYS/
  PRES   - MEAN SEA LEVEL PRESSURE IN INCHES OF HG
  VSB    - VISIBILITY IN MILES
  HX     - HEAT INDEX
  WCI    - WIND CHILL INDEX
  VRB    - VARIABLE WIND DIRECTION
  N/A    - NOT AVAILABLE



USA.gov is the U.S. government's official web portal to all federal, state and local government web resources and services.